Location: Unspecified
(0.0000°N, 0.0000°E)
Time: 16:20:07
(UTC+00:00)

A-11 Canister half - Pass Details

Date: 28 November 2019
Orbit: 1526 x 1683 km, 47.3° (Epoch: 12 December)

Event Time Altitude Azimuth Distance (km) Brightness Sun altitude
Rises 15:46:23 0° 353° (N) 4,763 11.4 28.1°
Reaches altitude 10° 15:51:50 10° 17° (NNE) 3,746 10.8 26.9°
Maximum altitude 15:56:04 14° 45° (NE) 3,440 10.4 25.9°
Drops below altitude 10° 16:00:15 10° 72° (ENE) 3,708 10.5 24.9°
Sets 16:05:30 0° 96° (E) 4,677 11.1 23.7°
